Location: Pasadena, ca
(34.1243°N, 118.1037°W)
Time: 22:29:16
(UTC-08:00)

Hubble Space Telescope - Pass Details

Date: 17 November 2017
Orbit: 537 x 541 km, 28.5° (Epoch: 17 November)

Event Time Altitude Azimuth Distance (km) Brightness Sun altitude
Exits shadow 04:48:53 15° 203° (SSW) 1,463 2.8 -20.4°
Maximum altitude 04:50:59 22° 164° (SSE) 1,184 2.8 -19.9°
Drops below altitude 10° 04:54:12 10° 112° (ESE) 1,781 4.6 -19.3°
Sets 04:56:49 0° 97° (E) 2,674 6.0 -18.8°
